TIME,�g�[�m���b�g���n,�t���O,�����m���b�g���n,�t���O,�g�[�mMJ�n,�t���O,�����mMJ�n,�t���O
2004/3/1 0:00,0,0,0,0,0,0,0,0
2004/3/1 0:15,0,0,0,0,0,0,0,0
2004/3/1 0:30,0,0,0,0,0,0,0,0
2004/3/1 0:45,0,0,0,0,0,0,0,0
2004/3/1 1:00,0,0,0,0,0,0,0,0
2004/3/1 1:15,0,0,0,0,0,0,0,0
2004/3/1 1:30,0,0,0,0,0,0,0,0
2004/3/1 1:45,0,0,0,0,0,0,0,0
2004/3/1 2:00,0,0,0,0,0,0,0,0
2004/3/1 2:15,0,0,0,0,0,0,0,0
2004/3/1 2:30,0,0,0,0,0,0,0,0
2004/3/1 2:45,0,0,0,0,0,0,0,0
2004/3/1 3:00,0,0,0,0,0,0,0,0
2004/3/1 3:15,0,0,0,0,0,0,0,0
2004/3/1 3:30,0,0,0,0,0,0,0,0
2004/3/1 3:45,0,0,0,0,0,0,0,0
2004/3/1 4:00,0,0,0,0,0,0,0,0
2004/3/1 4:15,0,0,0,0,0,0,0,0
2004/3/1 4:30,0.00004508,0,0,0,5.55,0,0,0
2004/3/1 4:45,0.00026243,0,0,0,32.19,0,0,0
2004/3/1 5:00,0.00025438,0,0,0,31.17,0,0,0
2004/3/1 5:15,0.00025599,0,0,0,31.32,0,0,0
2004/3/1 5:30,0.00025599,0,0,0,31.25,0,0,0
2004/3/1 5:45,0.00025921,0,0,0,31.72,0,0,0
2004/3/1 6:00,0.00026082,0,0.00000805,0,31.91,0,1.06,0
2004/3/1 6:15,0.00026082,0,0.00009016,0,31.95,0,11.06,0
2004/3/1 6:30,0.00024633,0,0,0,30.09,0,0,0
2004/3/1 6:45,0.00025116,0,0.00000483,0,30.73,0,0.66,0
2004/3/1 7:00,0.00025438,0,0.00000483,0,31.13,0,0.52,0
2004/3/1 7:15,0.00024794,0,0,0,30.39,0,0.02,0
2004/3/1 7:30,0.00024633,0,0.00001771,0,30.09,0,2.1,0
2004/3/1 7:45,0.00024633,0,0.00000161,0,30.23,0,0.19,0
2004/3/1 8:00,0.00009016,0,0,0,10.97,0,0,0
2004/3/1 8:15,0,0,0,0,0,0,0,0
2004/3/1 8:30,0,0,0,0,0,0,0,0
2004/3/1 8:45,0,0,0.00000483,0,0,0,0.57,0
2004/3/1 9:00,0,0,0.00000966,0,0,0,1.11,0
2004/3/1 9:15,0,0,0,0,0,0,0,0
2004/3/1 9:30,0,0,0,0,0,0,0,0
2004/3/1 9:45,0,0,0,0,0,0,0,0
2004/3/1 10:00,0,0,0,0,0,0,0,0
2004/3/1 10:15,0,0,0,0,0,0,0.02,0
2004/3/1 10:30,0,0,0,0,0,0,0,0
2004/3/1 10:45,0,0,0,0,0,0,0,0
2004/3/1 11:00,0.00012075,0,0,0,14.84,0,0,0
2004/3/1 11:15,0.00026082,0,0.00017227,0,32,0,21.08,0
2004/3/1 11:30,0.00025438,0,0.00001449,0,31.1,0,1.7,0
2004/3/1 11:45,0.00025599,0,0.00005313,0,31.25,0,6.45,0
2004/3/1 12:00,0.00025438,0,0.0000966,0,31.08,0,11.89,0
2004/3/1 12:15,0.00025116,0,0,0,30.73,0,0,0
2004/3/1 12:30,0,0,0,0,0,0,0,0
2004/3/1 12:45,0.00013041,0,0,0,15.91,0,0,0
2004/3/1 13:00,0.0000644,0,0,0,7.92,0,0,0
2004/3/1 13:15,0,0,0,0,0,0,0,0
2004/3/1 13:30,0.00001449,0,0,0,1.8,0,0,0
2004/3/1 13:45,0.00023828,0,0,0,29.17,0,0,0
2004/3/1 14:00,0.0000483,0,0,0,5.93,0,0,0
2004/3/1 14:15,0,0,0,0,0,0,0,0
2004/3/1 14:30,0,0,0,0,0,0,0,0
2004/3/1 14:45,0,0,0,0,0,0,0,0
2004/3/1 15:00,0,0,0,0,0,0,0,0
2004/3/1 15:15,0,0,0,0,0,0,0,0
2004/3/1 15:30,0,0,0,0,0,0,0,0
2004/3/1 15:45,0,0,0,0,0,0,0,0
2004/3/1 16:00,0,0,0,0,0,0,0,0
2004/3/1 16:15,0,0,0,0,0,0,0,0
2004/3/1 16:30,0.00004669,0,0,0,5.67,0,0,0
2004/3/1 16:45,0.00025921,0,0,0,31.77,0,0,0
2004/3/1 17:00,0.00025438,0,0,0,31.2,0,0,0
2004/3/1 17:15,0.00025116,0,0,0,30.75,0,0,0
2004/3/1 17:30,0.00025921,0,0,0,31.79,0,0,0
2004/3/1 17:45,0.00022379,0,0.00007084,0,27.3,0,8.72,0
2004/3/1 18:00,0,0,0.00006923,0,0,0,8.48,0
2004/3/1 18:15,0.00016583,0,0.00005474,0,20.21,0,6.62,0
2004/3/1 18:30,0.00008211,0,0.00000322,0,10.02,0,0.4,0
2004/3/1 18:45,0.00011914,0,0,0,14.51,0,0,0
2004/3/1 19:00,0.00024955,0,0,0,30.49,0,0,0
2004/3/1 19:15,0.00003703,0,0,0,4.49,0,0,0
2004/3/1 19:30,0,0,0,0,0,0,0,0
2004/3/1 19:45,0.00014007,0,0,0,17.14,0,0,0
2004/3/1 20:00,0.00008211,0,0,0,10.02,0,0,0
2004/3/1 20:15,0.00001127,0,0,0,1.47,0,0,0
2004/3/1 20:30,0.0002415,0,0,0,29.5,0,0,0
2004/3/1 20:45,0.00024633,0,0.00057638,0,30.23,0,70.55,0
2004/3/1 21:00,0,0,0.00060053,0,0,0,73.48,0
2004/3/1 21:15,0,0,0.00030751,0,0,0,37.63,0
2004/3/1 21:30,0,0,0,0,0,0,0,0
2004/3/1 21:45,0,0,0.00031556,0,0,0,38.69,0
2004/3/1 22:00,0,0,0.00006762,0,0,0,8.25,0
2004/3/1 22:15,0,0,0,0,0,0,0,0
2004/3/1 22:30,0,0,0,0,0,0,0,0
2004/3/1 22:45,0,0,0,0,0,0,0,0
2004/3/1 23:00,0,0,0,0,0,0,0,0
2004/3/1 23:15,0,0,0,0,0,0,0,0
2004/3/1 23:30,0,0,0,0,0,0,0,0
2004/3/1 23:45,0,0,0,0,0,0,0,0
2004/3/2 0:00,0,0,0,0,0,0,0,0
2004/3/2 0:15,0,0,0,0,0,0,0,0
2004/3/2 0:30,0,0,0,0,0,0,0,0
2004/3/2 0:45,0,0,0,0,0,0,0,0
2004/3/2 1:00,0,0,0,0,0,0,0,0
2004/3/2 1:15,0,0,0,0,0,0,0,0
2004/3/2 1:30,0,0,0,0,0,0,0,0
2004/3/2 1:45,0,0,0,0,0,0,0,0
2004/3/2 2:00,0,0,0,0,0,0,0,0
2004/3/2 2:15,0,0,0,0,0,0,0,0
2004/3/2 2:30,0,0,0,0,0,0,0,0
2004/3/2 2:45,0,0,0,0,0,0,0,0
2004/3/2 3:00,0,0,0,0,0,0,0,0
2004/3/2 3:15,0,0,0,0,0,0,0,0
2004/3/2 3:30,0,0,0,0,0,0,0,0
2004/3/2 3:45,0,0,0,0,0,0,0,0
2004/3/2 4:00,0,0,0,0,0,0,0,0
2004/3/2 4:15,0,0,0,0,0,0,0,0
2004/3/2 4:30,0.00004347,0,0,0,5.25,0,0,0
2004/3/2 4:45,0.00025438,0,0,0,31.15,0,0,0
2004/3/2 5:00,0.0002576,0,0,0,31.51,0,0,0
2004/3/2 5:15,0.00026404,0,0,0,32.33,0,0,0
2004/3/2 5:30,0.00026082,0,0,0,31.95,0,0,0
2004/3/2 5:45,0.00025277,0,0,0,30.87,0,0,0
2004/3/2 6:00,0.00026243,0,0.00002576,0,32.03,0,3.19,0
2004/3/2 6:15,0.00026243,0,0.00005635,0,32.12,0,6.9,0
2004/3/2 6:30,0.00025277,0,0.00001932,0,30.94,0,2.43,0
2004/3/2 6:45,0.00025599,0,0.00005152,0,31.25,0,6.36,0
2004/3/2 7:00,0.00025116,0,0.00000161,0,30.68,0,0.12,0
2004/3/2 7:15,0.00025438,0,0,0,31.13,0,0,0
2004/3/2 7:30,0.00025277,0,0,0,31.01,0,0,0
2004/3/2 7:45,0.0002576,0,0,0,31.58,0,0,0
2004/3/2 8:00,0.00010626,0,0,0,13.09,0,0,0
2004/3/2 8:15,0,0,0,0,0,0,0,0
2004/3/2 8:30,0,0,0,0,0,0,0,0
2004/3/2 8:45,0,0,0,0,0,0,0,0
2004/3/2 9:00,0,0,0.00000805,0,0,0,0.92,0
2004/3/2 9:15,0,0,0.00000322,0,0,0,0.38,0
2004/3/2 9:30,0,0,0,0,0,0,0,0
2004/3/2 9:45,0,0,0,0,0,0,0,0
2004/3/2 10:00,0,0,0.00007728,0,0,0,9.5,0
2004/3/2 10:15,0,0,0,0,0,0,0,0
2004/3/2 10:30,0,0,0,0,0,0,0,0
2004/3/2 10:45,0,0,0,0,0,0,0,0
2004/3/2 11:00,0,0,0,0,0,0,0,0
2004/3/2 11:15,0,0,0,0,0,0,0,0
2004/3/2 11:30,0,0,0.00009338,0,0,0,11.49,0
2004/3/2 11:45,0,0,0.00002576,0,0,0,3.24,0
2004/3/2 12:00,0,0,0.00000161,0,0,0,0.28,0
2004/3/2 12:15,0,0,0,0,0,0,0,0
2004/3/2 12:30,0,0,0,0,0,0,0,0
2004/3/2 12:45,0,0,0,0,0,0,0,0
2004/3/2 13:00,0.00000322,0,0.00008372,0,0.31,0,10.16,0
2004/3/2 13:15,0.00023506,0,0.00002898,0,28.69,0,3.5,0
2004/3/2 13:30,0.00025599,0,0,0,31.36,0,0,0
2004/3/2 13:45,0.00024311,0,0,0,29.83,0,0,0
2004/3/2 14:00,0.00024955,0,0,0,30.56,0,0,0
2004/3/2 14:15,0.00003381,0,0,0,4.09,0,0,0
2004/3/2 14:30,0,0,0,0,0,0,0,0
2004/3/2 14:45,0.00001449,0,0,0,1.68,0,0,0
2004/3/2 15:00,0.00023667,0,0,0,29,0,0,0
2004/3/2 15:15,0.00006601,0,0,0,8.13,0,0,0
2004/3/2 15:30,0,0,0,0,0,0,0,0
2004/3/2 15:45,0,0,0,0,0,0,0,0
2004/3/2 16:00,0,0,0,0,0,0,0,0
2004/3/2 16:15,0,0,0,0,0,0,0,0
2004/3/2 16:30,0.00005152,0,0,0,6.38,0,0,0
2004/3/2 16:45,0.00026082,0,0,0,31.93,0,0,0
2004/3/2 17:00,0.00024955,0,0,0,30.56,0,0,0
2004/3/2 17:15,0.00026082,0,0,0,31.98,0,0,0
2004/3/2 17:30,0.00005313,0,0,0,6.59,0,0,0
2004/3/2 17:45,0.00003059,0,0,0,3.78,0,0,0
2004/3/2 18:00,0.00024633,0,0,0,30.11,0,0,0
2004/3/2 18:15,0.0002415,0,0,0,29.59,0,0,0
2004/3/2 18:30,0,0,0,0,0,0,0,0
2004/3/2 18:45,0.00001771,0,0,0,2.15,0,0,0
2004/3/2 19:00,0.00012397,0,0,0,15.2,0,0,0
2004/3/2 19:15,0.00012075,0,0,0,14.77,0,0,0
2004/3/2 19:30,0.0000322,0,0,0,3.95,0,0,0
2004/3/2 19:45,0.00006279,0,0,0,7.63,0,0,0
2004/3/2 20:00,0.00022379,0,0,0,27.46,0,0,0
2004/3/2 20:15,0.00009177,0,0.00049427,0,11.32,0,60.53,0
2004/3/2 20:30,0.0002576,0,0.0006923,0,31.58,0,84.73,0
2004/3/2 20:45,0.00008694,0,0.00002415,0,10.54,0,2.98,0
2004/3/2 21:00,0,0,0.00026243,0,0,0,32.05,0
2004/3/2 21:15,0,0,0,0,0,0,0.07,0
2004/3/2 21:30,0,0,0.00018676,0,0,0,22.85,0
2004/3/2 21:45,0,0,0.00015134,0,0,0,18.51,0
2004/3/2 22:00,0,0,0,0,0,0,0,0
2004/3/2 22:15,0,0,0,0,0,0,0,0
2004/3/2 22:30,0,0,0,0,0,0,0,0
2004/3/2 22:45,0,0,0,0,0,0,0,0
2004/3/2 23:00,0,0,0,0,0,0,0,0
2004/3/2 23:15,0,0,0,0,0,0,0,0
2004/3/2 23:30,0,0,0,0,0,0,0,0
2004/3/2 23:45,0,0,0,0,0,0,0,0
2004/3/3 0:00,0,0,0,0,0,0,0,0
2004/3/3 0:15,0,0,0,0,0,0,0,0
2004/3/3 0:30,0,0,0,0,0,0,0,0
2004/3/3 0:45,0,0,0,0,0,0,0,0
2004/3/3 1:00,0,0,0,0,0,0,0,0
2004/3/3 1:15,0,0,0,0,0,0,0,0
2004/3/3 1:30,0,0,0,0,0,0,0,0
2004/3/3 1:45,0,0,0,0,0,0,0,0
2004/3/3 2:00,0,0,0,0,0,0,0,0
2004/3/3 2:15,0,0,0,0,0,0,0,0
2004/3/3 2:30,0,0,0,0,0,0,0,0
2004/3/3 2:45,0,0,0,0,0,0,0,0
2004/3/3 3:00,0,0,0,0,0,0,0,0
2004/3/3 3:15,0,0,0,0,0,0,0,0
2004/3/3 3:30,0,0,0,0,0,0,0,0
2004/3/3 3:45,0,0,0,0,0,0,0,0
2004/3/3 4:00,0,0,0,0,0,0,0,0
2004/3/3 4:15,0.00000966,0,0,0,1.25,0,0,0
2004/3/3 4:30,0.00024633,0,0,0,30.23,0,0,0
2004/3/3 4:45,0.0002576,0,0,0,31.58,0,0,0
2004/3/3 5:00,0.00026082,0,0,0,31.93,0,0,0
2004/3/3 5:15,0.00026243,0,0,0,32.17,0,0,0
2004/3/3 5:30,0.00026887,0,0,0,32.88,0,0,0
2004/3/3 5:45,0.00027048,0,0,0,32.99,0,0,0
2004/3/3 6:00,0.00026243,0,0,0,32.19,0,0,0
2004/3/3 6:15,0.0002576,0,0.00001288,0,31.6,0,1.58,0
2004/3/3 6:30,0.00025599,0,0.00000161,0,31.22,0,0.24,0
2004/3/3 6:45,0.00026082,0,0.00005957,0,32,0,7.28,0
2004/3/3 7:00,0.00026565,0,0,0,32.47,0,0,0
2004/3/3 7:15,0.0002576,0,0,0,31.51,0,0,0
2004/3/3 7:30,0.00026082,0,0.00004025,0,32,0,4.92,0
2004/3/3 7:45,0.00026565,0,0.00001288,0,32.59,0,1.56,0
2004/3/3 8:00,0.00010787,0,0,0,13.24,0,0,0
2004/3/3 8:15,0,0,0,0,0,0,0,0
2004/3/3 8:30,0,0,0,0,0,0,0,0
2004/3/3 8:45,0,0,0,0,0,0,0,0
2004/3/3 9:00,0,0,0,0,0,0,0,0
2004/3/3 9:15,0,0,0,0,0,0,0.02,0
2004/3/3 9:30,0.00002576,0,0.00001127,0,3.1,0,1.47,0
2004/3/3 9:45,0.00024955,0,0,0,30.58,0,0,0
2004/3/3 10:00,0.00025438,0,0,0,31.1,0,0,0
2004/3/3 10:15,0.00000161,0,0,0,0.17,0,0,0
2004/3/3 10:30,0,0,0.00003381,0,0,0,4.18,0
2004/3/3 10:45,0,0,0,0,0,0,0,0
2004/3/3 11:00,0,0,0,0,0,0,0,0
2004/3/3 11:15,0,0,0,0,0,0,0,0
2004/3/3 11:30,0,0,0,0,0,0,0,0
2004/3/3 11:45,0,0,0,0,0,0,0,0
2004/3/3 12:00,0,0,0.00001127,0,0,0,1.3,0
2004/3/3 12:15,0,0,0.00009821,0,0,0,11.96,0
2004/3/3 12:30,0,0,0.00005957,0,0,0,7.28,0
2004/3/3 12:45,0,0,0.00003703,0,0,0,4.61,0
2004/3/3 13:00,0,0,0,0,0,0,0,0
2004/3/3 13:15,0,0,0,0,0,0,0,0
2004/3/3 13:30,0,0,0,0,0,0,0,0
2004/3/3 13:45,0,0,0,0,0,0,0,0
2004/3/3 14:00,0,0,0,0,0,0,0,0
2004/3/3 14:15,0,0,0,0,0,0,0,0
2004/3/3 14:30,0,0,0,0,0,0,0,0
2004/3/3 14:45,0,0,0,0,0,0,0,0
2004/3/3 15:00,0,0,0,0,0,0,0,0
2004/3/3 15:15,0,0,0,0,0,0,0,0
2004/3/3 15:30,0,0,0,0,0,0,0,0
2004/3/3 15:45,0,0,0,0,0,0,0,0
2004/3/3 16:00,0,0,0.00009821,0,0,0,12.03,0
2004/3/3 16:15,0,0,0.00002898,0,0,0,3.52,0
2004/3/3 16:30,0.00004347,0,0.00000644,0,5.27,0,0.73,0
2004/3/3 16:45,0.00026565,0,0,0,32.55,0,0,0
2004/3/3 17:00,0.00025438,0,0,0,31.17,0,0,0
2004/3/3 17:15,0.00026082,0,0,0,31.84,0,0,0
2004/3/3 17:30,0.00025921,0,0,0,31.72,0,0,0
2004/3/3 17:45,0.00026565,0,0,0,32.55,0,0,0
2004/3/3 18:00,0.00026565,0,0,0,32.55,0,0,0
2004/3/3 18:15,0.00026243,0,0,0,32.17,0,0,0
2004/3/3 18:30,0.00026726,0,0.00010143,0,32.78,0,12.43,0
2004/3/3 18:45,0.00025599,0,0.0000161,0,31.22,0,1.96,0
2004/3/3 19:00,0.00026243,0,0,0,32.12,0,0,0
2004/3/3 19:15,0.00026243,0,0.00002415,0,32.14,0,2.86,0
2004/3/3 19:30,0.00010626,0,0,0,13,0,0,0
2004/3/3 19:45,0,0,0,0,0,0,0,0
2004/3/3 20:00,0.00019159,0,0,0,23.52,0,0,0
2004/3/3 20:15,0.00014007,0,0,0,17.11,0,0,0
2004/3/3 20:30,0,0,0.00110446,0,0.02,0,135.12,0
2004/3/3 20:45,0.00013846,0,0.00017066,0,16.9,0,20.89,0
2004/3/3 21:00,0.00003864,0,0.00030751,0,4.7,0,37.56,0
2004/3/3 21:15,0,0,0,0,0,0,0,0
2004/3/3 21:30,0,0,0.00034132,0,0,0,41.72,0
2004/3/3 21:45,0,0,0,0,0,0,0,0
2004/3/3 22:00,0,0,0,0,0,0,0,0
2004/3/3 22:15,0,0,0,0,0,0,0,0
2004/3/3 22:30,0,0,0,0,0,0,0,0
2004/3/3 22:45,0,0,0,0,0,0,0,0
2004/3/3 23:00,0,0,0,0,0,0,0,0
2004/3/3 23:15,0,0,0,0,0,0,0,0
2004/3/3 23:30,0,0,0,0,0,0,0,0
2004/3/3 23:45,0,0,0,0,0,0,0,0
2004/3/4 0:00,0,0,0,0,0,0,0,0
2004/3/4 0:15,0,0,0,0,0,0,0,0
2004/3/4 0:30,0,0,0,0,0,0,0,0
2004/3/4 0:45,0,0,0,0,0,0,0,0
2004/3/4 1:00,0,0,0,0,0,0,0,0
2004/3/4 1:15,0,0,0,0,0,0,0,0
2004/3/4 1:30,0,0,0,0,0,0,0,0
2004/3/4 1:45,0,0,0,0,0,0,0,0
2004/3/4 2:00,0,0,0,0,0,0,0,0
2004/3/4 2:15,0,0,0,0,0,0,0,0
2004/3/4 2:30,0,0,0,0,0,0,0,0
2004/3/4 2:45,0,0,0,0,0,0,0,0
2004/3/4 3:00,0,0,0,0,0,0,0,0
2004/3/4 3:15,0,0,0,0,0,0,0,0
2004/3/4 3:30,0,0,0,0,0,0,0,0
2004/3/4 3:45,0,0,0,0,0,0,0,0
2004/3/4 4:00,0,0,0,0,0,0,0,0
2004/3/4 4:15,0,0,0,0,0,0,0,0
2004/3/4 4:30,0.00004508,0,0,0,5.6,0,0,0
2004/3/4 4:45,0.00026726,0,0,0,32.73,0,0,0
2004/3/4 5:00,0.00026404,0,0,0,32.24,0,0,0
2004/3/4 5:15,0.00025921,0,0,0,31.74,0,0,0
2004/3/4 5:30,0.00026565,0,0,0,32.59,0,0,0
2004/3/4 5:45,0.00026565,0,0,0,32.55,0,0,0
2004/3/4 6:00,0.00026082,0,0,0,31.88,0,0,0
2004/3/4 6:15,0.00026082,0,0,0,31.81,0,0,0
2004/3/4 6:30,0.00026726,0,0,0,32.73,0,0,0
2004/3/4 6:45,0.00025921,0,0.00007728,0,31.67,0,9.41,0
2004/3/4 7:00,0.00026082,0,0,0,31.84,0,0,0
2004/3/4 7:15,0.0002576,0,0,0,31.43,0,0,0
2004/3/4 7:30,0.00024794,0,0.00036869,0,30.35,0,45.12,0
2004/3/4 7:45,0.00026243,0,0,0,32.1,0,0,0
2004/3/4 8:00,0.00010948,0,0.00005796,0,13.38,0,7.07,0
2004/3/4 8:15,0,0,0,0,0,0,0,0
2004/3/4 8:30,0,0,0,0,0,0,0,0
2004/3/4 8:45,0,0,0,0,0,0,0,0
2004/3/4 9:00,0,0,0,0,0,0,0,0
2004/3/4 9:15,0,0,0,0,0,0,0,0
2004/3/4 9:30,0,0,0,0,0,0,0,0
2004/3/4 9:45,0,0,0,0,0,0,0,0
2004/3/4 10:00,0,0,0,0,0,0,0,0
2004/3/4 10:15,0,0,0,0,0,0,0,0
2004/3/4 10:30,0,0,0,0,0,0,0,0
2004/3/4 10:45,0,0,0,0,0,0,0,0
2004/3/4 11:00,0,0,0,0,0,0,0,0
2004/3/4 11:15,0,0,0,0,0,0,0,0
2004/3/4 11:30,0,0,0,0,0,0,0,0
2004/3/4 11:45,0.00009821,0,0,0,12.05,0,0,0
2004/3/4 12:00,0.00026082,0,0.00001932,0,31.81,0,2.43,0
2004/3/4 12:15,0.00025438,0,0,0,31.15,0,0.09,0
2004/3/4 12:30,0.00026565,0,0,0,32.57,0,0,0
2004/3/4 12:45,0.00027048,0,0,0,33.07,0,0,0
2004/3/4 13:00,0.00026243,0,0,0,32.07,0,0,0
2004/3/4 13:15,0.00024633,0,0,0,30.04,0,0,0
2004/3/4 13:30,0.00025277,0,0,0,30.96,0,0,0
2004/3/4 13:45,0.00025921,0,0,0,31.72,0,0,0
2004/3/4 14:00,0.00003864,0,0,0,4.7,0,0,0
2004/3/4 14:15,0.00012558,0,0,0,15.34,0,0,0
2004/3/4 14:30,0.00025277,0,0,0,30.87,0,0,0
2004/3/4 14:45,0.00025116,0,0,0,30.68,0,0,0
2004/3/4 15:00,0.00001932,0,0,0,2.46,0,0,0
2004/3/4 15:15,0.00016905,0,0,0,20.75,0,0,0
2004/3/4 15:30,0.00017549,0,0,0,21.48,0,0,0
2004/3/4 15:45,0.00002415,0,0,0,2.98,0,0,0
2004/3/4 16:00,0.00024955,0,0,0,30.58,0,0,0
2004/3/4 16:15,0.00001932,0,0,0,2.29,0,0,0
2004/3/4 16:30,0.00018837,0,0,0,23,0,0,0
2004/3/4 16:45,0.00022862,0,0,0,28.05,0,0,0
2004/3/4 17:00,0,0,0,0,0,0,0,0
2004/3/4 17:15,0.00014812,0,0.00002898,0,18.08,0,3.62,0
2004/3/4 17:30,0.00025438,0,0.00003864,0,31.17,0,4.73,0
2004/3/4 17:45,0.00003864,0,0.00001127,0,4.73,0,1.3,0
2004/3/4 18:00,0.00011592,0,0,0,14.11,0,0,0
2004/3/4 18:15,0.00025277,0,0,0,30.84,0,0,0
2004/3/4 18:30,0.00025116,0,0,0,30.68,0,0,0
2004/3/4 18:45,0,0,0,0,0,0,0,0
2004/3/4 19:00,0.00019642,0,0.00002415,0,23.97,0,2.91,0
2004/3/4 19:15,0.00026082,0,0,0,31.81,0,0,0
2004/3/4 19:30,0.00015134,0,0,0,18.46,0,0,0
2004/3/4 19:45,0.00004991,0,0,0,6.07,0,0,0
2004/3/4 20:00,0.00024633,0,0,0,30.11,0,0,0
2004/3/4 20:15,0.00016744,0,0,0,20.49,0,0,0
2004/3/4 20:30,0.00024472,0,0.00006762,0,30.02,0,8.2,0
2004/3/4 20:45,0.00011753,0,0.00090482,0,14.37,0,110.66,0
2004/3/4 21:00,0.00000322,0,0.0000966,0,0.35,0,11.86,0
2004/3/4 21:15,0.00001127,0,0.00016905,0,1.32,0,20.63,0
2004/3/4 21:30,0,0,0.00019159,0,0,0,23.49,0
2004/3/4 21:45,0.00005957,0,0.00023828,0,7.33,0,29.07,0
2004/3/4 22:00,0.00026243,0,0.00012719,0,32.19,0,15.55,0
2004/3/4 22:15,0.0001288,0,0.00014007,0,15.74,0,17.06,0
2004/3/4 22:30,0.00009499,0,0,0,11.7,0,0,0
2004/3/4 22:45,0.00003864,0,0,0,4.82,0,0,0
2004/3/4 23:00,0,0,0,0,0,0,0,0
2004/3/4 23:15,0,0,0,0,0,0,0,0
2004/3/4 23:30,0,0,0,0,0,0,0,0
2004/3/4 23:45,0,0,0,0,0,0,0,0
2004/3/5 0:00,0,0,0,0,0,0,0,0
2004/3/5 0:15,0,0,0,0,0,0,0,0
2004/3/5 0:30,0,0,0,0,0,0,0,0
2004/3/5 0:45,0,0,0,0,0,0,0,0
2004/3/5 1:00,0,0,0,0,0,0,0,0
2004/3/5 1:15,0,0,0,0,0,0,0,0
2004/3/5 1:30,0,0,0,0,0,0,0,0
2004/3/5 1:45,0,0,0,0,0,0,0,0
2004/3/5 2:00,0,0,0,0,0,0,0,0
2004/3/5 2:15,0,0,0,0,0,0,0,0
2004/3/5 2:30,0,0,0,0,0,0,0,0
2004/3/5 2:45,0,0,0,0,0,0,0,0
2004/3/5 3:00,0,0,0,0,0,0,0,0
2004/3/5 3:15,0,0,0,0,0,0,0,0
2004/3/5 3:30,0,0,0,0,0,0,0,0
2004/3/5 3:45,0,0,0,0,0,0,0,0
2004/3/5 4:00,0,0,0,0,0,0,0,0
2004/3/5 4:15,0,0,0,0,0,0,0,0
2004/3/5 4:30,0.00004347,0,0,0,5.25,0,0,0
2004/3/5 4:45,0.00026404,0,0,0,32.36,0,0,0
2004/3/5 5:00,0.00026243,0,0,0,32.05,0,0,0
2004/3/5 5:15,0.00026082,0,0,0,31.98,0,0,0
2004/3/5 5:30,0.0002737,0,0,0,33.54,0,0,0
2004/3/5 5:45,0.00026404,0,0,0,32.33,0,0,0
2004/3/5 6:00,0.00026243,0,0,0,32.19,0,0,0
2004/3/5 6:15,0.00026404,0,0,0,32.21,0,0,0
2004/3/5 6:30,0.00026082,0,0,0,31.84,0,0,0
2004/3/5 6:45,0.00025116,0,0,0,30.77,0,0,0
2004/3/5 7:00,0.00025116,0,0,0,30.73,0,0,0
2004/3/5 7:15,0.00025921,0,0,0,31.67,0,0,0
2004/3/5 7:30,0.00026404,0,0,0,32.26,0,0,0
2004/3/5 7:45,0.00025277,0,0,0,30.84,0,0,0
2004/3/5 8:00,0.00008855,0,0,0,10.78,0,0,0
2004/3/5 8:15,0,0,0,0,0,0,0,0
2004/3/5 8:30,0,0,0,0,0,0,0,0
2004/3/5 8:45,0.00002898,0,0,0,3.52,0,0,0
2004/3/5 9:00,0.00025277,0,0,0,30.96,0,0,0
2004/3/5 9:15,0.00025921,0,0,0,31.67,0,0,0
2004/3/5 9:30,0.00012075,0,0,0,14.72,0,0,0
2004/3/5 9:45,0.00006601,0,0,0,8.04,0,0,0
2004/3/5 10:00,0.00024633,0,0,0,30.21,0,0,0
2004/3/5 10:15,0.00000322,0,0,0,0.47,0,0,0
2004/3/5 10:30,0.00013041,0,0.00007889,0,15.86,0,9.62,0
2004/3/5 10:45,0,0,0.00000483,0,0,0,0.54,0
2004/3/5 11:00,0.00022862,0,0,0,27.91,0,0,0
2004/3/5 11:15,0.00005635,0,0,0,6.95,0,0,0
2004/3/5 11:30,0.00016261,0,0,0,19.9,0,0,0
2004/3/5 11:45,0.00015456,0,0,0,18.96,0,0,0
2004/3/5 12:00,0,0,0,0,0,0,0,0
2004/3/5 12:15,0.00019159,0,0,0,23.45,0,0,0
2004/3/5 12:30,0.00000322,0,0,0,0.45,0,0,0
2004/3/5 12:45,0.00018032,0,0,0,22.1,0,0,0
2004/3/5 13:00,0.00018354,0,0.0001771,0,22.55,0,21.63,0
2004/3/5 13:15,0,0,0.00003059,0,0,0,3.78,0
2004/3/5 13:30,0,0,0.0000322,0,0,0,3.88,0
2004/3/5 13:45,0.00021574,0,0,0,26.38,0,0,0
2004/3/5 14:00,0.00012558,0,0,0,15.32,0,0,0
2004/3/5 14:15,0,0,0,0,0,0,0,0
2004/3/5 14:30,0.00012075,0,0,0,14.77,0,0,0
2004/3/5 14:45,0.00014651,0,0,0,17.99,0,0,0
2004/3/5 15:00,0,0,0,0,0,0,0,0
2004/3/5 15:15,0.00009982,0,0,0,12.17,0,0,0
2004/3/5 15:30,0.00019642,0,0,0,23.94,0,0,0
2004/3/5 15:45,0.00002093,0,0,0,2.53,0,0,0
2004/3/5 16:00,0,0,0,0,0,0,0,0
2004/3/5 16:15,0,0,0,0,0,0,0,0
2004/3/5 16:30,0.00005796,0,0,0,7.02,0,0,0
2004/3/5 16:45,0.00026243,0,0,0,32.1,0,0,0
2004/3/5 17:00,0.00024633,0,0,0,30.23,0,0,0
2004/3/5 17:15,0.00026404,0,0,0,32.26,0,0,0
2004/3/5 17:30,0.00000322,0,0,0,0.4,0,0,0
2004/3/5 17:45,0.00008855,0,0,0,10.92,0,0,0
2004/3/5 18:00,0.00026243,0,0,0,32.07,0,0,0
2004/3/5 18:15,0.00025921,0,0.00002737,0,31.65,0,3.33,0
2004/3/5 18:30,0.00025599,0,0.00004025,0,31.27,0,4.96,0
2004/3/5 18:45,0.00025116,0,0.0000322,0,30.82,0,3.95,0
2004/3/5 19:00,0,0,0.00001771,0,0,0,2.15,0
2004/3/5 19:15,0,0,0,0,0,0,0,0
2004/3/5 19:30,0.00021896,0,0,0,26.83,0,0,0
2004/3/5 19:45,0.00010787,0,0,0,13.14,0,0,0
2004/3/5 20:00,0,0,0,0,0.05,0,0,0
2004/3/5 20:15,0.00022379,0,0,0,27.39,0,0,0
2004/3/5 20:30,0.00005635,0,0,0,6.92,0,0,0
2004/3/5 20:45,0.00007245,0,0,0,8.84,0,0,0
2004/3/5 21:00,0.00020286,0,0,0,24.72,0,0,0
2004/3/5 21:15,0,0,0,0,0,0,0,0
2004/3/5 21:30,0,0,0.00061985,0,0,0,75.87,0
2004/3/5 21:45,0,0,0.0004347,0,0,0,53.08,0
2004/3/5 22:00,0,0,0.00043309,0,0,0,52.97,0
2004/3/5 22:15,0,0,0.00003059,0,0,0,3.76,0
2004/3/5 22:30,0,0,0,0,0,0,0,0
2004/3/5 22:45,0,0,0,0,0,0,0,0
2004/3/5 23:00,0,0,0,0,0,0,0,0
2004/3/5 23:15,0,0,0,0,0,0,0,0
2004/3/5 23:30,0,0,0,0,0,0,0,0
2004/3/5 23:45,0,0,0,0,0,0,0,0
2004/3/6 0:00,0,0,0,0,0,0,0,0
2004/3/6 0:15,0,0,0,0,0,0,0,0
2004/3/6 0:30,0,0,0,0,0,0,0,0
2004/3/6 0:45,0,0,0,0,0,0,0,0
2004/3/6 1:00,0,0,0,0,0,0,0,0
2004/3/6 1:15,0,0,0,0,0,0,0,0
2004/3/6 1:30,0,0,0,0,0,0,0,0
2004/3/6 1:45,0,0,0,0,0,0,0,0
2004/3/6 2:00,0,0,0,0,0,0,0,0
2004/3/6 2:15,0,0,0,0,0,0,0,0
2004/3/6 2:30,0,0,0,0,0,0,0,0
2004/3/6 2:45,0,0,0,0,0,0,0,0
2004/3/6 3:00,0,0,0,0,0,0,0,0
2004/3/6 3:15,0,0,0,0,0,0,0,0
2004/3/6 3:30,0,0,0,0,0,0,0,0
2004/3/6 3:45,0,0,0,0,0,0,0,0
2004/3/6 4:00,0,0,0,0,0,0,0,0
2004/3/6 4:15,0,0,0,0,0,0,0,0
2004/3/6 4:30,0.00004025,0,0,0,4.94,0,0,0
2004/3/6 4:45,0.00026565,0,0,0,32.5,0,0,0
2004/3/6 5:00,0.00025438,0,0,0,31.15,0,0,0
2004/3/6 5:15,0.00026726,0,0,0,32.76,0,0,0
2004/3/6 5:30,0.00026404,0,0,0,32.38,0,0,0
2004/3/6 5:45,0.00025921,0,0,0,31.65,0,0,0
2004/3/6 6:00,0.00024633,0,0,0,30.16,0,0,0
2004/3/6 6:15,0.00026565,0,0,0,32.55,0,0,0
2004/3/6 6:30,0.00026404,0,0,0,32.38,0,0,0
2004/3/6 6:45,0.00025921,0,0,0,31.65,0,0,0
2004/3/6 7:00,0.00025599,0,0,0,31.32,0,0,0
2004/3/6 7:15,0.00026404,0,0,0,32.29,0,0,0
2004/3/6 7:30,0.00026082,0,0,0,31.98,0,0,0
2004/3/6 7:45,0.00025438,0,0,0,31.15,0,0,0
2004/3/6 8:00,0.0001127,0,0,0,13.71,0,0,0
2004/3/6 8:15,0,0,0,0,0,0,0,0
2004/3/6 8:30,0.0001771,0,0,0,21.6,0,0,0
2004/3/6 8:45,0.00024955,0,0,0,30.56,0,0,0
2004/3/6 9:00,0.00003703,0,0,0,4.54,0,0,0
2004/3/6 9:15,0.00004186,0,0,0,5.03,0,0,0
2004/3/6 9:30,0.0002093,0,0,0,25.57,0,0,0
2004/3/6 9:45,0,0,0,0,0,0,0,0
2004/3/6 10:00,0,0,0,0,0,0,0,0
2004/3/6 10:15,0,0,0,0,0,0,0,0
2004/3/6 10:30,0,0,0,0,0,0,0,0
2004/3/6 10:45,0,0,0,0,0,0,0,0
2004/3/6 11:00,0,0,0.00008533,0,0,0,10.42,0
2004/3/6 11:15,0,0,0.00000161,0,0,0,0.24,0
2004/3/6 11:30,0,0,0,0,0,0,0,0
2004/3/6 11:45,0,0,0,0,0,0,0,0
2004/3/6 12:00,0,0,0,0,0,0,0,0
2004/3/6 12:15,0,0,0,0,0,0,0,0
2004/3/6 12:30,0,0,0,0,0,0,0,0
2004/3/6 12:45,0,0,0,0,0,0,0,0
2004/3/6 13:00,0,0,0,0,0,0,0,0
2004/3/6 13:15,0,0,0,0,0,0,0,0
2004/3/6 13:30,0,0,0,0,0,0,0,0
2004/3/6 13:45,0,0,0,0,0,0,0,0
2004/3/6 14:00,0,0,0,0,0,0,0,0
2004/3/6 14:15,0,0,0,0,0,0,0,0
2004/3/6 14:30,0,0,0,0,0,0,0,0
2004/3/6 14:45,0,0,0,0,0,0,0,0
2004/3/6 15:00,0,0,0,0,0,0,0,0
2004/3/6 15:15,0,0,0,0,0,0,0,0
2004/3/6 15:30,0,0,0,0,0,0,0,0
2004/3/6 15:45,0,0,0.00010143,0,0,0,12.36,0
2004/3/6 16:00,0,0,0.00002737,0,0,0,3.38,0
2004/3/6 16:15,0,0,0.00003381,0,0,0,4.14,0
2004/3/6 16:30,0.00004025,0,0,0,4.89,0,0,0
2004/3/6 16:45,0.00027048,0,0,0,33.02,0,0,0
2004/3/6 17:00,0.00026082,0,0,0,31.81,0,0.05,0
2004/3/6 17:15,0.00027048,0,0.0001127,0,32.99,0,13.83,0
2004/3/6 17:30,0.00025921,0,0.00003542,0,31.72,0,4.42,0
2004/3/6 17:45,0.00024633,0,0.00003864,0,30.13,0,4.63,0
2004/3/6 18:00,0.00025921,0,0.00005152,0,31.74,0,6.38,0
2004/3/6 18:15,0.00026082,0,0.00000322,0,31.81,0,0.31,0
2004/3/6 18:30,0.00026726,0,0,0,32.64,0,0,0
2004/3/6 18:45,0.00024955,0,0.00010626,0,30.44,0,12.95,0
2004/3/6 19:00,0.00003542,0,0.00002415,0,4.33,0,2.91,0
2004/3/6 19:15,0.00007406,0,0.00003703,0,9.12,0,4.47,0
2004/3/6 19:30,0.00025116,0,0,0,30.65,0,0,0
2004/3/6 19:45,0,0,0,0,0,0,0,0
2004/3/6 20:00,0.00000644,0,0,0,0.78,0,0,0
2004/3/6 20:15,0.0002254,0,0,0,27.65,0,0,0
2004/3/6 20:30,0.00000483,0,0.00003059,0,0.66,0,3.69,0
2004/3/6 20:45,0.00010626,0,0,0,13.02,0,0,0
2004/3/6 21:00,0.00005474,0,0.00100786,0,6.62,0,123.23,0
2004/3/6 21:15,0,0,0.00012397,0,0,0,15.24,0
2004/3/6 21:30,0,0,0.00028819,0,0.02,0,35.29,0
2004/3/6 21:45,0,0,0,0,0,0,0,0
2004/3/6 22:00,0,0,0.00036547,0,0.02,0,44.74,0
2004/3/6 22:15,0,0,0,0,0,0,0,0
2004/3/6 22:30,0,0,0,0,0,0,0,0
2004/3/6 22:45,0,0,0,0,0,0,0,0
2004/3/6 23:00,0,0,0,0,0,0,0,0
2004/3/6 23:15,0,0,0,0,0,0,0,0
2004/3/6 23:30,0,0,0,0,0,0,0,0
2004/3/6 23:45,0,0,0,0,0,0,0,0
2004/3/7 0:00,0,0,0,0,0,0,0,0
2004/3/7 0:15,0,0,0,0,0,0,0,0
2004/3/7 0:30,0,0,0,0,0,0,0,0
2004/3/7 0:45,0,0,0,0,0,0,0,0
2004/3/7 1:00,0,0,0,0,0,0,0,0
2004/3/7 1:15,0,0,0,0,0,0,0,0
2004/3/7 1:30,0,0,0,0,0,0,0,0
2004/3/7 1:45,0,0,0,0,0,0,0,0
2004/3/7 2:00,0,0,0,0,0,0,0,0
2004/3/7 2:15,0,0,0,0,0,0,0,0
2004/3/7 2:30,0,0,0,0,0,0,0,0
2004/3/7 2:45,0,0,0,0,0,0,0,0
2004/3/7 3:00,0,0,0,0,0,0,0,0
2004/3/7 3:15,0,0,0,0,0,0,0,0
2004/3/7 3:30,0,0,0,0,0,0,0,0
2004/3/7 3:45,0,0,0,0,0,0,0,0
2004/3/7 4:00,0,0,0,0,0,0,0,0
2004/3/7 4:15,0,0,0,0,0,0,0,0
2004/3/7 4:30,0.00003864,0,0,0,4.8,0,0,0
2004/3/7 4:45,0.00025921,0,0,0,31.67,0,0,0
2004/3/7 5:00,0.00025921,0,0,0,31.79,0,0,0
2004/3/7 5:15,0.00026404,0,0,0,32.21,0,0,0
2004/3/7 5:30,0.0002576,0,0,0,31.55,0,0,0
2004/3/7 5:45,0.00026404,0,0,0,32.36,0,0,0
2004/3/7 6:00,0.00025599,0,0,0,31.36,0,0,0
2004/3/7 6:15,0.00026404,0,0,0,32.31,0,0,0
2004/3/7 6:30,0.00025277,0,0,0,30.84,0,0,0